Temperature
6 6 6 5 5 5 5 5 5 5 5 5 5 5 5 5 5 5 5 5 5 5 5 5 5 4 4 4 4 4 4 3 3 3 3 3 3 3 3 3 3 3 3
5 5 5 5 5 5 5 5 5 5 5 4 4 4 5 5 5 5 5 5 4 4 4 4 4 4 4 4 4 4 3 3 3 3 3 3 3 3 3 3 3 3 3
5 5 5 4 4 4 4 4 4 4 4 4 4 4 4 4 4 4 4 4 4 4 4 4 4 4 3 3 3 3 3 3 2 2 2 2 2 2 2 2 2 2 2
4 4 4 4 4 4 4 4 4 4 4 4 4 4 4 4 4 4 4 4 4 3 3 3 3 3 3 3 3 2 2 2 2 2 2 2 2 1 1 1 2 2 2
4 4 4 4 4 4 4 4 3 3 3 3 3 3 3 3 3 3 3 3 3 3 3 3 3 3 3 2 2 2 2 2 2 2 1 1 1 1 1 1 1 1 1
3 3 3 3 3 3 3 3 3 3 3 3 3 3 3 3 3 3 3 3 3 3 2 2 2 2 2 2 2 2 1 1 1 1 1 1 1 1 0 0 -0 -0 -0
3 3 3 3 3 3 3 3 3 3 3 3 3 2 2 2 2 2 2 2 2 2 2 2 2 2 2 2 1 1 1 1 1 1 1 1 1 0 0 -0 -0 -0 -1
3 3 3 3 2 2 2 2 2 2 2 2 2 2 2 2 2 2 2 2 1 2 2 2 2 2 1 1 1 1 1 1 1 0 0 0 0 -0 -0 -1 -1 -1 -1
2 2 2 2 2 2 2 2 2 2 2 2 2 2 2 1 1 1 1 1 1 1 1 1 1 1 1 1 1 1 1 1 0 -0 -0 -0 -0 -1 -1 -1 -1 -1 -1
2 2 2 2 2 1 2 2 1 1 1 1 1 1 1 1 1 1 1 1 1 1 1 1 1 1 1 0 0 0 0 0 -0 -0 -1 -1 -1 -1 -1 -1 -1 -2 -2
1 1 1 1 1 1 1 1 1 1 1 1 1 1 1 1 1 0 0 0 0 0 0 0 0 0 0 -0 -0 -0 -0 -0 -1 -1 -1 -1 -1 -1 -1 -2 -2 -2 -2
1 1 1 1 1 1 0 0 0 0 0 0 0 0 0 0 -0 -0 -0 -0 -0 -0 0 0 -0 -0 -0 -0 -1 -1 -1 -1 -1 -1 -1 -1 -1 -1 -2 -2 -2 -2 -2
-0 0 0 0 -0 -0 -0 -0 -0 -0 -0 -0 -1 -1 -0 -0 -1 -1 -1 -1 -1 -1 -0 -1 -1 -1 -1 -1 -1 -1 -1 -1 -1 -2 -1 -1 -2 -2 -2 -2 -2 -3 -3
-1 -1 -0 -0 -1 -1 -0 -0 -1 -1 -1 -1 -1 -1 -1 -1 -1 -1 -1 -1 -1 -1 -1 -1 -1 -1 -1 -1 -2 -2 -2 -2 -2 -2 -2 -2 -2 -2 -3 -3 -3 -3 -3
-1 -1 -1 -1 -1 -1 -1 -1 -1 -1 -1 -1 -1 -1 -1 -1 -1 -1 -1 -1 -2 -2 -2 -2 -2 -2 -2 -2 -2 -2 -2 -2 -2 -2 -2 -2 -3 -3 -3 -3 -3 -3 -3
-1 -2 -2 -2 -1 -1 -1 -1 -1 -1 -2 -2 -2 -2 -2 -2 -2 -2 -2 -2 -2 -2 -2 -2 -2 -2 -2 -2 -2 -2 -2 -2 -3 -3 -3 -3 -3 -3 -3 -3 -3 -4 -4
-2 -2 -2 -2 -2 -2 -2 -2 -2 -2 -2 -2 -2 -2 -2 -2 -2 -2 -2 -2 -2 -3 -3 -3 -3 -3 -3 -3 -3 -3 -3 -3 -3 -3 -3 -3 -3 -3 -4 -4 -4 -4 -4
-2 -2 -2 -2 -2 -2 -2 -2 -2 -3 -3 -3 -3 -3 -3 -3 -3 -3 -3 -3 -3 -3 -3 -3 -3 -3 -3 -3 -3 -3 -3 -3 -4 -4 -4 -4 -4 -4 -4 -4 -4 -4 -5
-3 -3 -3 -3 -3 -3 -3 -3 -3 -3 -3 -3 -3 -3 -3 -3 -3 -3 -3 -4 -4 -4 -4 -4 -4 -4 -4 -3 -3 -4 -4 -4 -4 -4 -4 -4 -4 -4 -4 -4 -5 -5 -5
-3 -3 -3 -3 -3 -3 -3 -3 -3 -3 -4 -4 -4 -3 -3 -4 -4 -4 -4 -4 -4 -4 -4 -4 -4 -4 -4 -4 -4 -4 -4 -4 -4 -4 -4 -4 -4 -5 -5 -5 -5 -5 -5
-3 -3 -4 -4 -4 -4 -4 -4 -4 -4 -4 -4 -4 -4 -4 -4 -4 -4 -4 -4 -4 -4 -4 -4 -4 -4 -4 -4 -4 -4 -4 -4 -5 -5 -5 -5 -5 -5 -5 -5 -5 -5 -6
-4 -4 -4 -4 -4 -4 -4 -4 -4 -4 -4 -5 -4 -4 -5 -5 -5 -5 -5 -5 -5 -5 -5 -5 -4 -4 -4 -5 -4 -5 -5 -5 -5 -5 -5 -5 -5 -5 -5 -5 -6 -6 -6
-4 -4 -4 -4 -5 -5 -5 -5 -5 -5 -5 -5 -5 -5 -5 -5 -5 -5 -5 -5 -5 -5 -5 -5 -5 -5 -5 -5 -5 -5 -5 -5 -5 -5 -5 -5 -5 -5 -5 -5 -6 -6 -6
-5 -5 -5 -5 -5 -5 -5 -5 -5 -5 -5 -5 -5 -5 -5 -5 -5 -5 -5 -5 -5 -5 -5 -5 -5 -5 -5 -5 -5 -5 -5 -5 -5 -5 -5 -5 -5 -5 -6 -6 -6 -6 -6
-5 -5 -5 -5 -5 -6 -6 -6 -6 -6 -6 -6 -6 -6 -6 -6 -6 -6 -6 -6 -6 -5 -6 -5 -5 -5 -5 -5 -5 -5 -5 -5 -5 -6 -6 -6 -6 -6 -6 -6 -6 -6 -6
-6 -6 -6 -6 -6 -6 -6 -6 -6 -6 -6 -6 -6 -6 -6 -6 -6 -6 -6 -6 -6 -6 -6 -6 -6 -6 -6 -6 -6 -6 -6 -6 -6 -6 -6 -6 -6 -6 -6 -6 -6 -6 -6
Wind_Speed
3 3 4 4 4 4 4 5 5 4 4 5 5 5 4 4 4 5 4 4 4 4 3 4 4 3 2 2 2 2 2 2 3 3 2 2 2 3 5 6 6 6 7
3 3 4 3 3 3 3 4 4 4 4 5 5 5 5 5 5 6 5 5 5 5 5 5 5 3 3 3 2 2 2 2 2 4 3 2 3 3 3 4 5 6 6
3 3 3 4 4 4 4 3 3 4 5 5 5 6 5 5 5 5 5 5 5 6 6 6 5 5 5 3 3 3 2 2 2 2 3 2 2 2 3 4 4 4 6
3 3 4 4 4 4 3 3 3 4 5 5 5 5 5 5 5 5 5 5 5 5 5 5 5 6 6 5 4 3 3 2 2 2 2 2 2 2 1 3 4 3 4
2 3 4 4 3 3 3 3 3 3 4 4 4 4 4 4 5 5 5 5 5 5 4 5 5 6 6 5 4 4 4 3 2 2 2 2 2 1 2 2 3 4 4
3 3 3 3 3 3 3 3 3 3 3 3 4 4 4 4 6 7 5 5 5 5 5 4 4 5 6 6 6 5 5 4 4 3 3 3 4 3 2 2 2 3 4
3 3 3 3 3 3 3 3 3 3 3 3 3 4 5 5 6 7 6 5 5 5 5 4 3 4 5 3 5 5 6 6 6 5 5 6 5 4 3 3 3 3 4
2 3 3 3 3 2 3 3 3 3 3 3 3 4 4 5 6 7 6 4 4 4 5 5 5 4 4 4 3 3 4 4 5 4 5 6 5 4 4 4 4 3 4
3 3 4 4 4 3 3 3 3 3 3 3 3 3 4 5 6 7 6 4 4 4 4 5 5 5 5 5 4 3 3 3 4 5 6 5 5 5 3 1 1 2 3
4 4 3 4 4 4 4 3 2 3 3 3 3 3 4 4 6 7 6 4 4 3 3 4 5 5 5 5 4 4 4 4 2 2 2 3 3 3 4 3 3 2 2
3 3 3 3 4 4 3 3 3 3 2 2 3 3 4 5 5 7 7 4 4 4 3 3 4 5 5 5 5 4 5 3 2 2 1 1 1 1 2 3 3 3 3
2 2 2 3 3 3 3 2 3 3 3 3 2 3 3 4 5 6 6 6 4 4 4 3 3 5 5 5 4 4 3 2 1 1 1 2 2 2 2 3 3 4 4
2 2 2 2 2 2 3 3 3 3 3 3 3 3 3 2 3 5 5 5 5 3 3 4 4 4 3 3 4 4 3 2 2 2 2 3 2 2 2 1 2 2 2
3 2 2 2 2 2 2 3 3 4 4 4 4 4 3 3 3 3 3 3 3 3 2 2 3 3 2 2 3 3 2 2 3 3 2 2 1 1 2 2 1 1 1
3 3 2 3 3 3 3 3 4 4 5 5 5 4 4 4 5 5 3 3 3 3 2 1 1 1 1 1 1 1 2 2 2 2 2 2 2 2 2 1 1 1 1
3 2 2 2 2 2 2 2 3 4 6 6 6 5 5 6 6 5 5 5 5 4 3 2 2 2 3 3 2 2 2 2 2 2 2 2 2 2 2 1 1 1 2
3 3 3 2 3 3 2 2 2 2 3 4 5 6 5 5 5 5 5 4 4 5 3 3 3 3 3 3 3 3 3 2 2 2 3 3 3 2 2 2 2 2 2
3 3 3 3 3 3 3 3 3 2 2 2 3 5 5 4 4 4 4 3 2 3 2 3 3 3 3 3 3 3 2 2 2 2 3 3 2 2 2 2 2 2 2
2 2 3 3 2 2 3 2 2 3 2 2 2 2 3 3 4 4 3 2 3 3 3 3 3 3 3 3 3 3 3 3 3 2 3 3 3 3 3 3 3 3 3
2 4 3 2 2 2 2 2 2 2 2 3 3 2 2 1 1 2 2 2 3 3 3 3 3 3 3 3 3 3 3 3 3 3 3 3 3 3 3 3 3 3 3
2 2 3 2 2 2 2 3 2 2 3 3 3 3 3 2 3 3 3 3 3 3 3 3 3 3 3 2 3 3 4 3 3 3 3 3 3 3 3 2 3 2 2
2 2 2 2 2 2 2 2 2 2 3 3 2 2 3 2 2 2 3 3 2 3 3 3 3 3 3 3 3 3 4 4 3 3 3 3 3 3 3 3 3 2 2
2 2 2 2 2 3 2 2 2 2 2 2 2 2 2 2 2 2 2 2 2 2 2 2 3 3 3 3 4 4 4 4 4 4 4 3 3 3 3 3 3 3 3
2 2 2 2 2 2 2 2 2 2 2 2 2 2 2 2 2 2 2 2 2 2 2 2 2 3 3 3 4 4 5 5 5 5 5 5 4 3 3 3 3 3 3
2 2 2 2 2 2 2 2 2 2 2 2 2 2 2 2 2 2 1 1 1 2 2 2 2 2 3 4 4 4 5 5 5 4 4 4 4 4 3 3 3 3 2
1 1 1 1 2 2 2 2 2 2 2 2 2 1 1 1 1 1 1 1 1 1 1 2 2 2 3 3 3 4 4 4 4 5 4 3 4 3 3 3 3 3 3
Wind_Direction
178 177 169 176 178 176 182 193 194 195 194 192 197 197 199 199 192 190 195 193 195 204 201 202 213 201 199 210 191 184 196 197 245 275 273 285 284 294 310 308 303 302 305
187 181 177 180 176 179 190 199 195 195 197 197 194 197 200 200 200 195 198 199 202 207 208 207 215 207 205 212 206 202 208 209 222 265 281 275 273 279 298 302 312 310 303
189 182 179 184 189 196 200 198 195 195 193 191 191 197 199 201 203 202 201 204 208 212 209 208 213 206 213 212 211 215 216 225 223 241 264 272 281 289 312 310 312 312 308
192 185 191 199 200 200 195 193 202 198 194 192 195 196 197 198 203 202 203 206 210 216 215 212 212 210 212 208 212 216 213 214 217 230 256 273 277 288 301 312 318 322 317
196 199 208 201 193 190 192 203 203 199 200 194 194 196 197 200 203 198 203 206 206 213 221 223 221 217 219 216 214 208 201 207 213 229 246 266 273 277 275 281 299 315 308
207 208 207 195 189 191 201 202 195 196 196 195 201 201 207 215 214 210 206 203 206 208 218 226 229 225 229 231 231 224 211 208 213 220 235 246 249 247 263 270 287 312 298
215 208 201 193 198 200 191 185 194 198 194 205 216 209 216 220 218 216 214 203 205 208 209 213 230 240 229 217 234 237 235 231 222 216 228 237 238 232 236 258 265 269 270
217 210 203 192 193 192 186 194 202 200 197 206 216 215 218 226 222 220 217 210 207 210 215 216 222 231 229 213 211 225 231 235 241 232 225 234 235 230 225 236 248 279 284
221 218 208 193 189 192 207 216 208 197 207 210 210 213 220 235 226 219 212 205 209 219 226 224 220 222 230 224 212 221 239 259 265 258 257 256 253 247 232 196 248 294 292
227 220 209 192 188 200 211 214 202 199 211 209 215 222 226 232 228 218 210 200 207 219 228 231 231 226 230 227 211 208 228 245 239 268 275 272 264 249 241 231 212 239 275
234 211 200 194 193 197 197 199 188 192 197 210 219 235 233 233 229 220 211 200 204 209 220 230 232 233 241 236 219 216 230 229 214 217 233 253 276 266 259 253 233 219 236
212 205 203 201 199 186 180 194 189 185 195 215 224 246 245 236 232 226 221 222 208 203 216 223 231 235 240 242 231 228 227 213 194 200 227 247 250 252 258 263 257 249 244
200 211 211 202 197 187 186 194 193 192 202 219 222 239 249 237 234 235 229 225 219 218 222 226 229 233 234 233 228 223 213 200 197 211 232 245 244 241 249 272 283 284 294
201 215 208 194 204 202 204 203 207 210 214 222 226 234 241 235 223 225 229 230 228 234 226 217 217 217 217 219 219 219 217 211 209 215 224 232 223 225 232 233 245 259 299
208 211 211 205 206 213 219 220 222 224 220 223 225 222 221 231 234 234 218 215 214 212 187 157 152 171 206 220 227 225 212 209 230 224 212 220 232 242 245 234 221 226 249
211 217 215 213 212 212 221 260 260 244 239 237 235 230 239 238 234 231 235 235 221 191 165 175 192 206 216 221 224 235 232 227 223 215 218 223 233 240 242 242 236 234 253
211 220 219 215 213 213 216 224 254 278 249 236 231 233 236 230 229 230 227 223 203 182 185 196 208 216 224 225 225 228 237 236 220 219 229 229 232 231 234 241 241 251 258
216 220 220 218 215 216 219 223 226 228 243 267 254 235 226 224 223 219 205 185 204 207 203 204 215 223 228 229 227 230 235 226 217 222 227 226 217 220 232 236 232 243 252
217 217 217 215 216 217 218 218 220 222 229 250 269 247 225 219 215 208 193 194 206 217 219 218 220 222 230 232 229 228 227 224 221 218 224 221 218 221 230 230 231 244 248
229 221 213 204 203 208 214 217 222 221 225 233 235 235 216 204 207 205 206 205 212 222 226 228 227 224 224 228 224 222 223 225 221 220 223 220 219 221 225 222 224 233 242
225 217 212 209 210 213 217 221 223 222 228 239 243 238 225 207 206 210 214 218 219 223 227 230 229 223 224 225 224 224 221 226 224 220 217 217 215 220 224 224 228 234 238
210 206 207 208 214 218 221 218 215 216 225 235 249 246 227 214 207 214 222 229 230 227 224 221 228 226 220 222 226 224 222 226 221 216 214 215 215 214 215 218 222 229 229
197 197 207 214 214 216 219 216 213 214 224 228 229 230 223 218 220 225 232 234 231 233 229 226 230 235 240 235 229 225 226 228 225 214 210 213 214 215 216 218 218 223 227
193 194 199 202 202 203 204 208 209 218 220 224 231 231 226 226 229 233 234 235 233 235 241 239 237 236 241 242 241 239 241 238 230 219 209 209 209 213 216 217 222 227 227
185 191 198 197 199 201 197 199 205 215 225 234 238 240 237 231 233 235 239 237 239 242 253 263 257 244 241 243 245 244 240 234 227 218 205 202 200 204 212 216 218 222 222
160 173 189 193 194 193 193 198 207 216 225 239 238 231 229 233 235 233 230 234 248 254 263 273 269 267 261 260 245 239 238 235 228 219 207 197 195 200 202 215 216 216 212
Height
1460 1461 1462 1464 1466 1468 1469 1471 1473 1474 1475 1477 1478 1480 1481 1482 1483 1484 1485 1486 1487 1488 1489 1489 1490 1491 1491 1492 1492 1492 1493 1493 1492 1491 1491 1491 1490 1489 1488 1487 1486 1484 1482
1458 1459 1460 1461 1463 1464 1466 1467 1469 1470 1472 1473 1474 1476 1476 1477 1479 1480 1481 1482 1483 1484 1485 1485 1486 1487 1487 1488 1489 1488 1489 1489 1489 1487 1487 1487 1486 1485 1484 1483 1482 1480 1479
1455 1456 1457 1458 1460 1461 1462 1464 1465 1467 1468 1469 1470 1472 1473 1473 1475 1476 1477 1478 1479 1480 1481 1482 1482 1483 1483 1484 1485 1485 1485 1485 1485 1484 1483 1483 1482 1481 1480 1479 1478 1477 1475
1452 1453 1454 1455 1456 1458 1459 1461 1462 1463 1464 1465 1466 1467 1468 1470 1471 1472 1473 1474 1475 1476 1477 1478 1478 1479 1479 1480 1480 1481 1481 1481 1481 1480 1479 1479 1478 1478 1477 1476 1474 1473 1472
1449 1450 1451 1452 1454 1455 1456 1458 1459 1460 1460 1462 1463 1464 1464 1465 1467 1468 1469 1470 1471 1472 1473 1474 1474 1475 1476 1476 1477 1477 1477 1477 1477 1476 1475 1475 1474 1474 1473 1472 1471 1470 1468
1446 1447 1448 1449 1450 1452 1453 1454 1455 1456 1457 1458 1459 1460 1460 1461 1463 1464 1465 1466 1467 1468 1468 1469 1470 1471 1472 1472 1473 1473 1474 1474 1473 1473 1472 1471 1470 1470 1470 1469 1468 1466 1464
1443 1444 1445 1446 1447 1448 1450 1451 1452 1453 1454 1454 1455 1456 1457 1458 1459 1460 1461 1462 1463 1464 1464 1465 1466 1467 1467 1468 1468 1469 1469 1469 1469 1469 1468 1467 1467 1467 1467 1465 1465 1463 1462
1440 1441 1442 1443 1444 1445 1446 1447 1448 1449 1450 1451 1452 1452 1453 1454 1455 1456 1457 1458 1459 1460 1460 1461 1462 1462 1463 1463 1464 1464 1464 1464 1465 1465 1464 1464 1464 1464 1463 1463 1462 1460 1459
1437 1438 1439 1440 1441 1441 1443 1444 1445 1445 1446 1447 1448 1449 1449 1450 1451 1452 1453 1454 1455 1455 1456 1457 1458 1458 1459 1460 1460 1460 1460 1460 1460 1460 1460 1460 1460 1460 1460 1459 1458 1457 1455
1434 1435 1436 1437 1437 1438 1439 1440 1441 1442 1443 1443 1444 1445 1446 1446 1447 1448 1449 1450 1450 1451 1452 1452 1453 1454 1455 1455 1456 1456 1456 1456 1456 1456 1456 1456 1456 1456 1456 1455 1455 1454 1453
1431 1432 1433 1433 1434 1435 1436 1437 1437 1438 1439 1440 1440 1441 1442 1443 1443 1444 1445 1446 1446 1447 1447 1448 1449 1450 1451 1451 1452 1452 1452 1452 1452 1452 1452 1452 1452 1451 1451 1451 1451 1451 1450
1428 1429 1429 1430 1431 1431 1432 1433 1434 1435 1435 1436 1436 1437 1438 1439 1439 1440 1441 1442 1443 1443 1443 1444 1445 1446 1447 1447 1448 1448 1448 1449 1448 1448 1448 1448 1448 1448 1448 1448 1448 1447 1447
1425 1425 1426 1427 1427 1428 1429 1429 1430 1431 1432 1432 1432 1432 1433 1434 1435 1436 1437 1438 1438 1439 1440 1441 1441 1442 1442 1443 1444 1444 1444 1444 1444 1444 1444 1444 1444 1444 1444 1444 1444 1444 1443
1421 1422 1422 1423 1424 1424 1425 1426 1426 1427 1427 1428 1428 1428 1429 1430 1430 1431 1432 1433 1434 1435 1436 1437 1437 1438 1438 1439 1439 1440 1440 1441 1441 1441 1441 1441 1441 1441 1441 1440 1440 1440 1439
1418 1418 1419 1419 1420 1421 1421 1422 1423 1423 1424 1424 1425 1425 1425 1425 1426 1428 1428 1429 1430 1431 1432 1432 1433 1433 1434 1435 1435 1436 1436 1437 1437 1437 1437 1437 1437 1437 1437 1437 1437 1436 1436
1414 1415 1415 1416 1416 1417 1418 1418 1419 1420 1420 1421 1421 1422 1422 1423 1423 1424 1425 1426 1427 1427 1428 1427 1428 1429 1430 1431 1431 1432 1432 1433 1433 1434 1434 1434 1434 1433 1434 1434 1433 1433 1432
1410 1411 1412 1412 1413 1413 1414 1414 1415 1416 1417 1417 1418 1418 1419 1419 1420 1420 1421 1422 1422 1423 1423 1424 1425 1425 1426 1427 1427 1428 1428 1429 1429 1430 1430 1430 1430 1430 1430 1430 1430 1430 1429
1407 1408 1408 1409 1409 1410 1410 1411 1412 1412 1412 1412 1414 1414 1415 1415 1416 1416 1417 1418 1418 1419 1419 1420 1421 1422 1422 1423 1424 1424 1425 1425 1426 1426 1426 1426 1427 1427 1427 1427 1427 1426 1426
1403 1404 1404 1405 1406 1407 1407 1408 1408 1409 1409 1409 1410 1410 1411 1411 1412 1413 1413 1414 1414 1415 1416 1417 1418 1418 1419 1419 1420 1421 1421 1422 1422 1422 1423 1423 1423 1423 1423 1423 1423 1423 1423
1400 1400 1401 1402 1402 1403 1404 1404 1405 1405 1405 1406 1406 1406 1407 1407 1408 1408 1409 1410 1410 1411 1412 1413 1414 1415 1415 1416 1416 1417 1418 1418 1419 1419 1419 1419 1420 1420 1420 1420 1420 1420 1420
1396 1397 1398 1398 1399 1400 1400 1401 1401 1402 1402 1402 1402 1403 1404 1404 1404 1405 1405 1406 1407 1408 1408 1409 1410 1411 1411 1412 1413 1413 1414 1414 1415 1415 1416 1416 1416 1417 1417 1417 1417 1417 1417
1393 1393 1394 1395 1396 1396 1397 1398 1398 1398 1399 1399 1399 1400 1400 1401 1401 1402 1402 1403 1404 1404 1405 1406 1406 1407 1408 1408 1409 1409 1410 1410 1411 1412 1412 1413 1413 1413 1414 1414 1414 1414 1414
1390 1390 1391 1392 1392 1393 1394 1394 1395 1395 1395 1396 1396 1397 1397 1397 1398 1399 1399 1400 1400 1401 1401 1402 1403 1403 1404 1405 1405 1406 1406 1407 1407 1408 1408 1409 1409 1410 1410 1411 1411 1411 1411
1387 1388 1388 1388 1389 1389 1390 1391 1391 1392 1392 1393 1393 1394 1394 1395 1395 1396 1396 1396 1397 1397 1398 1399 1399 1400 1400 1401 1402 1402 1403 1403 1404 1404 1405 1405 1406 1406 1407 1408 1408 1408 1408
1385 1385 1385 1386 1386 1386 1387 1388 1389 1389 1390 1390 1390 1391 1391 1392 1392 1393 1393 1394 1394 1394 1395 1395 1396 1397 1397 1398 1399 1399 1399 1400 1401 1401 1401 1402 1403 1403 1404 1404 1404 1405 1405
1382 1383 1383 1383 1383 1384 1385 1385 1386 1386 1387 1387 1388 1388 1389 1389 1390 1390 1391 1391 1391 1392 1392 1393 1393 1394 1394 1395 1395 1396 1396 1397 1397 1398 1398 1399 1399 1400 1401 1401 1401 1402 1402